This demonstration page uses our WeatherBlox Daily Observations layout. Learn more.

Left ArrowRight Arrow

39.51506, -84.39828

Hourly Observations for March 29, 2015

Temp ( °F °C ) Dew Point ( °F °C ) Humidity (%) Winds ( mph kmh ) Pressure ( in mb ) Visibility ( mi km ) Precip ( " mm )
12:15 am 00:15 Clear 25 -3.9 17 -8.1 73 73 N N/A 30.45 1031 10 16 N/A
12:35 am 00:35 Clear 23 -5 17 -8.5 77 77 N N/A 30.45 1031 10 16 N/A
12:55 am 00:55 Clear 22 -5.3 16 -8.7 77 77 N N/A 30.45 1031 10 16 N/A
1:15 am 01:15 Clear 23 -5 17 -8.4 77 77 N N/A 30.45 1031 10 16 N/A
1:35 am 01:35 Clear 23 -5 16 -8.8 75 75 N N/A 30.42 1030 10 16 N/A
1:55 am 01:55 Clear 22 -5.5 17 -8.6 79 79 N N/A 30.45 1031 10 16 N/A
2:15 am 02:15 Clear 22 -5.3 17 -8.4 79 79 N N/A 30.45 1031 10 16 N/A
2:35 am 02:35 Clear 22 -5.6 17 -8.5 80 80 N N/A 30.45 1031 10 16 N/A
2:55 am 02:55 Clear 22 -5.7 17 -8.6 80 80 N N/A 30.45 1031 10 16 N/A
3:15 am 03:15 Clear 21 -6.3 16 -9.1 81 81 N N/A 30.42 1030 10 16 N/A
3:35 am 03:35 Clear 21 -6.2 16 -8.7 83 83 N N/A 30.42 1030 10 16 N/A
3:55 am 03:55 Clear 21 -6.1 17 -8.5 83 83 N N/A 30.42 1030 10 16 N/A
4:15 am 04:15 Clear 20 -6.7 16 -8.9 85 85 N N/A 30.42 1030 10 16 N/A
4:35 am 04:35 Clear 21 -6.3 17 -8.5 85 85 N N/A 30.42 1030 10 16 N/A
4:55 am 04:55 Clear 21 -6.3 17 -8.5 85 85 N N/A 30.42 1030 10 16 N/A
5:15 am 05:15 Clear 21 -6.3 17 -8.5 85 85 N N/A 30.42 1030 10 16 N/A
5:35 am 05:35 Clear 20 -6.5 17 -8.6 85 85 N N/A 30.42 1030 10 16 N/A
5:55 am 05:55 Clear 21 -6.3 17 -8.3 86 86 N N/A 30.42 1030 10 16 N/A
6:15 am 06:15 Clear 20 -6.7 16 -8.7 86 86 N N/A 30.42 1030 10 16 N/A
6:35 am 06:35 Clear 21 -6.3 17 -8.5 85 85 N N/A 30.42 1030 10 16 N/A
6:55 am 06:55 Clear 20 -6.8 16 -8.9 85 85 N N/A 30.42 1030 10 16 N/A
7:15 am 07:15 Clear 21 -6.3 17 -8.5 85 85 N N/A 30.42 1030 10 16 N/A
7:35 am 07:35 Sunny 19 -7 15 -9.2 85 85 N N/A 30.42 1030 10 16 N/A
7:55 am 07:55 Sunny 22 -5.6 17 -8.4 81 81 N N/A 30.42 1030 10 16 N/A
8:15 am 08:15 Sunny 24 -4.2 19 -7.5 78 78 N N/A 30.39 1029 10 16 N/A
8:35 am 08:35 Sunny 29 -1.5 20 -6.6 69 69 S 7 11 30.39 1029 10 16 N/A
8:55 am 08:55 Sunny 29 -1.4 18 -7.6 63 63 S 5 7 30.39 1029 10 16 N/A
9:15 am 09:15 Sunny 32 undefined 17 -8.1 55 55 S 10 17 30.39 1029 10 16 N/A
9:35 am 09:35 Sunny 34 1.2 18 -8 51 51 S 13 20 30.39 1029 10 16 N/A
9:55 am 09:55 Sunny 34 1.2 16 -8.8 48 48 SSW 14 22 30.39 1029 10 16 N/A
10:15 am 10:15 Sunny 35 1.5 15 -9.4 45 45 S 10 17 30.39 1029 10 16 N/A
10:35 am 10:35 Sunny 37 2.6 14 -10.1 39 39 S 15 24 30.36 1028 10 16 N/A
10:55 am 10:55 Sunny 37 2.6 12 -11.3 35 35 S 15 24 30.36 1028 10 16 N/A
11:15 am 11:15 Sunny 39 4 13 -10.6 34 34 SSW 14 22 30.36 1028 10 16 N/A
11:35 am 11:35 Sunny 39 4 11 -11.5 32 32 S 14 22 30.33 1027 10 16 N/A
11:55 am 11:55 Sunny 40 4.6 11 -11.7 30 30 S 10 17 30.36 1028 10 16 N/A
12:15 pm 12:15 Sunny 41 5.2 10 -12.3 27 27 S 14 22 30.33 1027 10 16 N/A
12:35 pm 12:35 Sunny 43 6.1 9 -12.6 25 25 S 14 22 30.33 1027 10 16 N/A
12:55 pm 12:55 Sunny 44 6.8 8 -13.5 22 22 SW 18 30 30.27 1025 10 16 N/A
1:15 pm 13:15 Sunny 48 8.8 9 -12.7 21 21 SSW 16 26 30.27 1025 10 16 N/A
1:35 pm 13:35 Sunny 49 9.6 9 -12.9 19 19 S 17 28 30.24 1024 10 16 N/A
1:55 pm 13:55 Sunny 49 9.6 9 -12.6 20 20 S 17 28 30.21 1023 10 16 N/A
2:15 pm 14:15 Sunny 49 9.6 9 -12.9 19 19 S 14 22 30.21 1023 10 16 N/A
2:35 pm 14:35 Sunny 49 9.6 6 -14.6 17 17 S 14 22 30.18 1022 10 16 N/A
2:55 pm 14:55 Sunny 49 9.6 6 -14.3 17 17 SW 21 33 30.18 1022 10 16 N/A
3:15 pm 15:15 Sunny 49 9.6 5 -15.1 16 16 SSW 16 26 30.15 1021 10 16 N/A
3:35 pm 15:35 Sunny 49 9.6 3 -16.1 15 15 SSW 18 30 30.12 1020 10 16 N/A
3:55 pm 15:55 Sunny 49 9.6 4 -15.6 15 15 S 18 30 30.09 1019 10 16 N/A
4:15 pm 16:15 Partly Cloudy 49 9.6 5 -15 16 16 S 15 24 30.06 1018 10 16 N/A
4:35 pm 16:35 Mostly Cloudy 49 9.6 4 -15.7 15 15 S 18 30 30.03 1017 10 16 N/A
4:55 pm 16:55 Cloudy 49 9.6 4 -15.5 15 15 S 18 30 30.00 1016 10 16 N/A
5:15 pm 17:15 Cloudy 49 9.6 5 -15.1 16 16 S 14 22 30.00 1016 10 16 N/A
5:35 pm 17:35 Cloudy with Light Rain 49 9.6 6 -14.2 17 17 S 14 22 30.00 1016 10 16 N/A
5:55 pm 17:55 Cloudy 51 10.3 6 -14.5 16 16 S 18 30 29.97 1015 10 16 N/A
6:15 pm 18:15 Cloudy 51 10.8 4 -15.4 14 14 SSW 13 20 29.97 1015 10 16 N/A
6:35 pm 18:35 Cloudy 52 11 7 -13.9 16 16 SSW 12 19 29.97 1015 10 16 N/A
6:55 pm 18:55 Cloudy 52 11 8 -13.5 17 17 SSW 5 7 29.97 1015 10 16 N/A
7:15 pm 19:15 Cloudy 51 10.5 9 -13 18 18 SSW 6 9 29.97 1015 10 16 N/A
7:35 pm 19:35 Cloudy with Light Rain 49 9.6 13 -10.7 23 23 W 7 11 30.00 1016 10 16 N/A
7:55 pm 19:55 Cloudy 49 9.6 15 -9.5 25 25 WSW 6 9 30.00 1016 10 16 N/A
8:15 pm 20:15 Cloudy with Rain 49 9.6 18 -7.7 29 29 S 8 13 29.97 1015 10 16 N/A
8:35 pm 20:35 Cloudy with Light Snow 49 9.6 23 -5 36 36 S 9 15 29.94 1014 10 16 N/A
8:55 pm 20:55 Cloudy with Light Snow 49 9.6 29 -1.7 46 46 SSW 12 19 29.94 1014 7 11 N/A
9:15 pm 21:15 Cloudy with Light Snow 44 6.8 32 0.2 63 63 WSW 5 7 29.97 1015 7 11 N/A
9:35 pm 21:35 Cloudy with Light Snow 43 6.1 34 1 70 70 N N/A 29.97 1015 7 11 N/A
9:55 pm 21:55 Cloudy with Light Snow 42 5.5 36 2 78 78 N N/A 29.97 1015 7 11 N/A
10:15 pm 22:15 Cloudy 42 5.5 36 2 78 78 N N/A 30.00 1016 10 16 N/A
10:35 pm 22:35 Cloudy 42 5.5 36 2.3 80 80 N N/A 30.00 1016 10 16 N/A
10:55 pm 22:55 Cloudy 43 6 36 2.1 76 76 S 3 6 30.00 1016 10 16 N/A
11:15 pm 23:15 Cloudy 43 6.1 35 1.5 73 73 SSW 6 9 29.97 1015 10 16 N/A
11:35 pm 23:35 Cloudy 43 6.2 34 1.3 71 71 S 5 7 29.97 1015 10 16 N/A
11:55 pm 23:55 Cloudy 42 5.5 36 2.2 80 80 N N/A 29.97 1015 10 16 N/A

Powered by AerisWeather